Time,TemperatureF,DewpointF,PressureIn,WindDirection,WindDirectionDegrees,WindSpeedMPH,WindSpeedGustMPH,Humidity,HourlyPrecipIn,Conditions,Clouds,dailyrainin,SoftwareType,DateUTC
2013-03-17 00:00:00,59.6,50.6,29.75,WSW,239,0.0,0.0,72,0.00,,---,0.00,VWS V14.01,2013-03-17 04:00:00,
2013-03-17 00:05:00,59.2,50.2,29.76,WSW,239,0.0,0.0,72,0.00,,---,0.00,VWS V14.01,2013-03-17 04:05:00,
2013-03-17 00:10:00,58.9,50.3,29.76,WSW,239,0.0,0.0,73,0.00,,---,0.00,VWS V14.01,2013-03-17 04:10:00,
2013-03-17 00:15:00,58.6,50.0,29.76,WSW,239,0.0,0.0,73,0.00,,---,0.00,VWS V14.01,2013-03-17 04:15:00,
2013-03-17 00:20:00,58.3,49.7,29.76,WSW,239,0.0,0.0,73,0.00,,---,0.00,VWS V14.01,2013-03-17 04:20:00,
2013-03-17 00:25:00,58.0,50.1,29.76,WSW,239,0.0,0.0,75,0.00,,---,0.00,VWS V14.01,2013-03-17 04:25:00,
2013-03-17 00:30:00,57.5,50.0,29.76,WSW,239,0.0,0.0,76,0.00,,---,0.00,VWS V14.01,2013-03-17 04:30:00,
2013-03-17 00:35:00,57.1,50.0,29.76,WSW,239,0.0,0.0,77,0.00,,---,0.00,VWS V14.01,2013-03-17 04:35:00,
2013-03-17 00:40:00,56.8,49.7,29.76,WSW,239,0.0,0.0,77,0.00,,---,0.00,VWS V14.01,2013-03-17 04:40:00,
2013-03-17 00:45:00,56.4,49.6,29.76,WSW,239,0.0,0.0,78,0.00,,---,0.00,VWS V14.01,2013-03-17 04:45:00,
2013-03-17 00:50:00,56.1,49.7,29.76,WSW,239,0.0,0.0,79,0.00,,---,0.00,VWS V14.01,2013-03-17 04:50:00,
2013-03-17 00:55:00,55.9,49.2,29.76,WSW,239,0.0,0.0,78,0.00,,---,0.00,VWS V14.01,2013-03-17 04:55:00,
2013-03-17 01:00:00,55.7,49.6,29.76,WSW,239,0.0,0.0,80,0.00,,---,0.00,VWS V14.01,2013-03-17 05:00:00,
2013-03-17 01:05:00,55.5,49.4,29.76,WSW,239,0.0,0.0,80,0.00,,---,0.00,VWS V14.01,2013-03-17 05:05:00,
2013-03-17 01:10:00,55.2,49.2,29.76,WSW,239,0.0,0.0,80,0.00,,---,0.00,VWS V14.01,2013-03-17 05:10:00,
2013-03-17 01:15:00,54.9,49.2,29.76,WSW,239,0.0,0.0,81,0.00,,---,0.00,VWS V14.01,2013-03-17 05:15:00,
2013-03-17 01:20:00,54.5,49.5,29.76,WSW,239,0.0,0.0,83,0.00,,---,0.00,VWS V14.01,2013-03-17 05:20:00,
2013-03-17 01:25:00,54.3,49.3,29.77,WSW,239,0.0,0.0,83,0.00,,---,0.00,VWS V14.01,2013-03-17 05:25:00,
2013-03-17 01:30:00,54.1,49.4,29.77,WSW,239,0.0,0.0,84,0.00,,---,0.00,VWS V14.01,2013-03-17 05:30:00,
2013-03-17 01:35:00,53.9,49.2,29.77,WSW,239,0.0,0.0,84,0.00,,---,0.00,VWS V14.01,2013-03-17 05:35:00,
2013-03-17 01:40:00,53.7,49.0,29.77,WSW,239,0.0,0.0,84,0.00,,---,0.00,VWS V14.01,2013-03-17 05:40:00,
2013-03-17 01:45:00,53.5,48.8,29.77,WSW,239,0.0,0.0,84,0.00,,---,0.00,VWS V14.01,2013-03-17 05:45:00,
2013-03-17 01:50:00,53.4,49.0,29.77,WSW,239,0.0,0.0,85,0.00,,---,0.00,VWS V14.01,2013-03-17 05:50:00,
2013-03-17 01:55:00,53.3,48.9,29.77,WSW,239,0.0,0.0,85,0.00,,---,0.00,VWS V14.01,2013-03-17 05:55:00,
2013-03-17 02:00:00,53.3,48.9,29.77,WSW,239,0.0,0.0,85,0.00,,---,0.00,VWS V14.01,2013-03-17 06:00:00,
2013-03-17 02:05:00,53.3,49.2,29.77,WSW,239,0.0,0.0,86,0.00,,---,0.00,VWS V14.01,2013-03-17 06:05:00,
2013-03-17 02:10:00,53.2,49.1,29.77,WSW,239,0.0,0.0,86,0.00,,---,0.00,VWS V14.01,2013-03-17 06:10:00,
2013-03-17 02:15:00,53.2,49.1,29.77,WSW,239,0.0,0.0,86,0.00,,---,0.00,VWS V14.01,2013-03-17 06:15:00,
2013-03-17 02:20:00,53.1,49.3,29.77,WSW,239,0.0,0.0,87,0.00,,---,0.00,VWS V14.01,2013-03-17 06:20:00,
2013-03-17 02:25:00,53.1,49.3,29.78,WSW,239,0.0,0.0,87,0.00,,---,0.00,VWS V14.01,2013-03-17 06:25:00,
2013-03-17 02:30:00,53.0,48.9,29.78,WSW,239,0.0,0.0,86,0.00,,---,0.00,VWS V14.01,2013-03-17 06:30:00,
2013-03-17 02:35:00,52.9,49.1,29.78,WSW,239,0.0,1.0,87,0.00,,---,0.00,VWS V14.01,2013-03-17 06:35:00,
2013-03-17 02:40:00,52.8,49.0,29.78,WSW,239,0.0,1.0,87,0.00,,---,0.00,VWS V14.01,2013-03-17 06:40:00,
2013-03-17 02:45:00,52.7,49.0,29.79,WSW,239,0.0,1.0,87,0.00,,---,0.00,VWS V14.01,2013-03-17 06:45:00,
2013-03-17 02:50:00,52.5,49.0,29.79,WSW,239,0.0,1.0,88,0.00,,---,0.00,VWS V14.01,2013-03-17 06:50:00,
2013-03-17 02:55:00,52.4,49.0,29.79,WSW,239,0.0,1.0,88,0.00,,---,0.00,VWS V14.01,2013-03-17 06:55:00,
2013-03-17 03:00:00,52.3,48.9,29.79,WSW,239,0.0,1.0,88,0.00,,---,0.00,VWS V14.01,2013-03-17 07:00:00,
2013-03-17 03:05:00,52.1,48.7,29.79,WSW,239,0.0,0.0,88,0.00,,---,0.00,VWS V14.01,2013-03-17 07:05:00,
2013-03-17 03:10:00,51.9,48.8,29.79,WSW,239,0.0,0.0,89,0.00,,---,0.00,VWS V14.01,2013-03-17 07:10:00,
2013-03-17 03:15:00,51.7,48.6,29.78,WSW,239,0.0,0.0,89,0.00,,---,0.00,VWS V14.01,2013-03-17 07:15:00,
2013-03-17 03:20:00,51.6,48.5,29.79,WSW,239,0.0,0.0,89,0.00,,---,0.00,VWS V14.01,2013-03-17 07:20:00,
2013-03-17 03:25:00,51.5,48.4,29.79,WSW,239,0.0,0.0,89,0.00,,---,0.00,VWS V14.01,2013-03-17 07:25:00,
2013-03-17 03:30:00,51.3,48.2,29.79,WSW,239,0.0,0.0,89,0.00,,---,0.00,VWS V14.01,2013-03-17 07:30:00,
2013-03-17 03:35:00,51.2,48.4,29.79,WSW,239,0.0,0.0,90,0.00,,---,0.00,VWS V14.01,2013-03-17 07:35:00,
2013-03-17 03:40:00,51.0,48.2,29.79,WSW,239,0.0,0.0,90,0.00,,---,0.00,VWS V14.01,2013-03-17 07:40:00,
2013-03-17 03:45:00,50.8,48.0,29.79,WSW,239,0.0,0.0,90,0.00,,---,0.00,VWS V14.01,2013-03-17 07:45:00,
2013-03-17 03:50:00,50.7,48.2,29.79,WSW,239,0.0,0.0,91,0.00,,---,0.00,VWS V14.01,2013-03-17 07:50:00,
2013-03-17 03:55:00,50.6,48.1,29.79,WSW,239,0.0,0.0,91,0.00,,---,0.00,VWS V14.01,2013-03-17 07:55:00,
2013-03-17 04:00:00,50.5,48.0,29.79,WSW,239,0.0,0.0,91,0.00,,---,0.00,VWS V14.01,2013-03-17 08:00:00,
2013-03-17 04:05:00,50.4,47.9,29.79,WSW,239,0.0,0.0,91,0.00,,---,0.00,VWS V14.01,2013-03-17 08:05:00,
2013-03-17 04:10:00,50.3,47.8,29.79,WSW,239,0.0,0.0,91,0.00,,---,0.00,VWS V14.01,2013-03-17 08:10:00,
2013-03-17 04:15:00,50.1,47.6,29.79,WSW,239,0.0,0.0,91,0.00,,---,0.00,VWS V14.01,2013-03-17 08:15:00,
2013-03-17 04:20:00,50.0,47.5,29.79,WSW,239,0.0,0.0,91,0.00,,---,0.00,VWS V14.01,2013-03-17 08:20:00,
2013-03-17 04:25:00,49.9,47.4,29.79,WSW,239,0.0,0.0,91,0.00,,---,0.00,VWS V14.01,2013-03-17 08:25:00,
2013-03-17 04:30:00,49.8,47.3,29.79,WSW,239,0.0,0.0,91,0.00,,---,0.00,VWS V14.01,2013-03-17 08:30:00,
2013-03-17 04:35:00,49.7,47.5,29.79,WSW,239,0.0,0.0,92,0.00,,---,0.00,VWS V14.01,2013-03-17 08:35:00,
2013-03-17 04:40:00,49.6,47.4,29.79,WSW,239,0.0,0.0,92,0.00,,---,0.00,VWS V14.01,2013-03-17 08:40:00,
2013-03-17 04:45:00,49.5,47.3,29.79,WSW,239,0.0,0.0,92,0.00,,---,0.00,VWS V14.01,2013-03-17 08:45:00,
2013-03-17 04:50:00,49.4,47.2,29.79,WSW,239,0.0,0.0,92,0.00,,---,0.00,VWS V14.01,2013-03-17 08:50:00,
2013-03-17 04:55:00,49.4,47.2,29.79,WSW,239,0.0,0.0,92,0.00,,---,0.00,VWS V14.01,2013-03-17 08:55:00,
2013-03-17 05:00:00,49.3,47.1,29.79,WSW,239,0.0,0.0,92,0.00,,---,0.00,VWS V14.01,2013-03-17 09:00:00,
2013-03-17 05:05:00,49.2,47.0,29.79,WSW,239,0.0,0.0,92,0.00,,---,0.00,VWS V14.01,2013-03-17 09:05:00,
2013-03-17 05:10:00,49.1,46.9,29.80,WSW,239,0.0,0.0,92,0.00,,---,0.00,VWS V14.01,2013-03-17 09:10:00,
2013-03-17 05:15:00,49.0,46.8,29.80,WSW,239,0.0,1.0,92,0.00,,---,0.00,VWS V14.01,2013-03-17 09:15:00,
2013-03-17 05:20:00,48.9,47.0,29.80,WSW,239,0.0,1.0,93,0.00,,---,0.00,VWS V14.01,2013-03-17 09:20:00,
2013-03-17 05:25:00,48.8,46.9,29.80,WSW,239,0.0,1.0,93,0.00,,---,0.00,VWS V14.01,2013-03-17 09:25:00,
2013-03-17 05:30:00,48.8,46.9,29.81,WSW,239,0.0,1.0,93,0.00,,---,0.00,VWS V14.01,2013-03-17 09:30:00,
2013-03-17 05:35:00,48.7,46.8,29.82,WSW,239,0.0,0.0,93,0.00,,---,0.00,VWS V14.01,2013-03-17 09:35:00,
2013-03-17 05:40:00,48.7,46.8,29.82,WSW,239,0.0,1.0,93,0.00,,---,0.00,VWS V14.01,2013-03-17 09:40:00,
2013-03-17 05:45:00,48.8,47.2,29.82,SSW,205,1.0,1.0,94,0.00,,---,0.00,VWS V14.01,2013-03-17 09:45:00,
2013-03-17 05:50:00,49.0,47.3,29.82,SSW,205,0.0,1.0,94,0.00,,---,0.00,VWS V14.01,2013-03-17 09:50:00,
2013-03-17 05:55:00,49.0,47.3,29.82,SSW,205,0.0,1.0,94,0.00,,---,0.00,VWS V14.01,2013-03-17 09:55:00,
2013-03-17 06:00:00,49.0,47.3,29.82,SSW,205,0.0,1.0,94,0.00,,---,0.00,VWS V14.01,2013-03-17 10:00:00,
2013-03-17 06:05:00,49.1,47.5,29.82,SSW,205,0.0,1.0,94,0.00,,---,0.00,VWS V14.01,2013-03-17 10:05:00,
2013-03-17 06:10:00,49.1,47.2,29.82,SSW,205,0.0,1.0,93,0.00,,---,0.00,VWS V14.01,2013-03-17 10:10:00,
2013-03-17 06:15:00,49.3,47.4,29.83,SSW,202,0.0,2.0,93,0.00,,---,0.00,VWS V14.01,2013-03-17 10:15:00,
2013-03-17 06:20:00,49.5,47.6,29.83,SSW,202,0.0,2.0,93,0.00,,---,0.00,VWS V14.01,2013-03-17 10:20:00,
2013-03-17 06:25:00,49.8,47.9,29.83,SSW,202,0.0,2.0,93,0.00,,---,0.00,VWS V14.01,2013-03-17 10:25:00,
2013-03-17 06:30:00,50.0,48.1,29.83,SSW,202,0.0,2.0,93,0.00,,---,0.00,VWS V14.01,2013-03-17 10:30:00,
2013-03-17 06:35:00,50.2,48.3,29.83,SSW,202,0.0,1.0,93,0.00,,---,0.00,VWS V14.01,2013-03-17 10:35:00,
2013-03-17 06:40:00,50.5,48.6,29.83,SSW,202,0.0,2.0,93,0.00,,---,0.00,VWS V14.01,2013-03-17 10:40:00,
2013-03-17 06:45:00,50.8,48.8,29.84,ESE,113,0.0,2.0,93,0.00,,---,0.00,VWS V14.01,2013-03-17 10:45:00,
2013-03-17 06:50:00,51.2,49.2,29.84,ESE,113,0.0,2.0,93,0.00,,---,0.00,VWS V14.01,2013-03-17 10:50:00,
2013-03-17 06:55:00,51.7,50.0,29.84,East,100,0.0,6.0,94,0.00,,---,0.00,VWS V14.01,2013-03-17 10:55:00,
2013-03-17 07:00:00,52.3,50.6,29.85,East,94,0.0,6.0,94,0.00,,---,0.00,VWS V14.01,2013-03-17 11:00:00,
2013-03-17 07:05:00,52.7,50.7,29.85,NE,49,2.0,4.0,93,0.00,,---,0.00,VWS V14.01,2013-03-17 11:05:00,
2013-03-17 07:10:00,53.0,51.0,29.85,East,84,1.0,4.0,93,0.00,,---,0.00,VWS V14.01,2013-03-17 11:10:00,
2013-03-17 07:15:00,53.2,51.2,29.85,NE,40,0.0,4.0,93,0.00,,---,0.00,VWS V14.01,2013-03-17 11:15:00,
2013-03-17 07:20:00,53.3,51.3,29.85,ESE,113,0.0,5.0,93,0.00,,---,0.00,VWS V14.01,2013-03-17 11:20:00,
2013-03-17 07:25:00,53.4,51.1,29.86,ENE,66,0.0,6.0,92,0.00,,---,0.00,VWS V14.01,2013-03-17 11:25:00,
2013-03-17 07:30:00,53.5,51.5,29.86,ENE,64,0.0,6.0,93,0.00,,---,0.00,VWS V14.01,2013-03-17 11:30:00,
2013-03-17 07:35:00,53.5,51.5,29.86,East,80,0.0,4.0,93,0.00,,---,0.00,VWS V14.01,2013-03-17 11:35:00,
2013-03-17 07:40:00,53.5,51.5,29.86,East,85,1.0,5.0,93,0.00,,---,0.00,VWS V14.01,2013-03-17 11:40:00,
2013-03-17 07:45:00,53.5,51.5,29.87,ESE,121,0.0,7.0,93,0.00,,---,0.00,VWS V14.01,2013-03-17 11:45:00,
2013-03-17 07:50:00,53.5,51.5,29.87,ENE,72,1.0,9.0,93,0.00,,---,0.00,VWS V14.01,2013-03-17 11:50:00,
2013-03-17 07:55:00,53.5,51.8,29.87,NE,49,0.0,9.0,94,0.00,,---,0.00,VWS V14.01,2013-03-17 11:55:00,
2013-03-17 08:00:00,53.6,51.9,29.87,East,96,0.0,9.0,94,0.00,,---,0.00,VWS V14.01,2013-03-17 12:00:00,
2013-03-17 08:05:00,53.6,51.9,29.87,NE,41,4.0,4.0,94,0.00,,---,0.00,VWS V14.01,2013-03-17 12:05:00,
2013-03-17 08:10:00,53.6,51.9,29.87,ESE,109,0.0,7.0,94,0.00,,---,0.00,VWS V14.01,2013-03-17 12:10:00,
2013-03-17 08:15:00,53.7,52.0,29.87,East,79,2.0,7.0,94,0.00,,---,0.00,VWS V14.01,2013-03-17 12:15:00,
2013-03-17 08:20:00,53.8,52.1,29.87,ENE,78,1.0,7.0,94,0.00,,---,0.00,VWS V14.01,2013-03-17 12:20:00,
2013-03-17 08:25:00,53.8,52.1,29.87,ENE,63,2.0,7.0,94,0.00,,---,0.00,VWS V14.01,2013-03-17 12:25:00,
2013-03-17 08:30:00,53.9,52.2,29.87,NNE,28,2.0,7.0,94,0.00,,---,0.00,VWS V14.01,2013-03-17 12:30:00,
2013-03-17 08:35:00,53.9,52.2,29.87,East,82,2.0,5.0,94,0.00,,---,0.00,VWS V14.01,2013-03-17 12:35:00,
2013-03-17 08:40:00,54.0,52.3,29.87,SE,128,1.0,7.0,94,0.00,,---,0.00,VWS V14.01,2013-03-17 12:40:00,
2013-03-17 08:45:00,54.1,52.4,29.87,ESE,105,0.0,7.0,94,0.00,,---,0.00,VWS V14.01,2013-03-17 12:45:00,
2013-03-17 08:50:00,54.1,52.4,29.87,ENE,60,2.0,7.0,94,0.00,,---,0.00,VWS V14.01,2013-03-17 12:50:00,
2013-03-17 08:55:00,54.2,52.5,29.87,East,79,0.0,7.0,94,0.00,,---,0.00,VWS V14.01,2013-03-17 12:55:00,
2013-03-17 09:00:00,54.3,52.6,29.88,East,90,1.0,7.0,94,0.00,,---,0.00,VWS V14.01,2013-03-17 13:00:00,
2013-03-17 09:05:00,54.4,52.7,29.89,NE,44,0.0,5.0,94,0.00,,---,0.00,VWS V14.01,2013-03-17 13:05:00,
2013-03-17 09:10:00,54.4,52.7,29.90,NE,44,2.0,5.0,94,0.00,,---,0.00,VWS V14.01,2013-03-17 13:10:00,
2013-03-17 09:15:00,54.4,52.7,29.90,ESE,109,1.0,5.0,94,0.00,,---,0.00,VWS V14.01,2013-03-17 13:15:00,
2013-03-17 09:20:00,54.5,52.8,29.90,ESE,109,0.0,5.0,94,0.00,,---,0.00,VWS V14.01,2013-03-17 13:20:00,
2013-03-17 09:25:00,54.6,52.9,29.90,ENE,72,2.0,5.0,94,0.00,,---,0.00,VWS V14.01,2013-03-17 13:25:00,
2013-03-17 09:30:00,54.6,52.9,29.91,SSE,159,1.0,5.0,94,0.00,,---,0.00,VWS V14.01,2013-03-17 13:30:00,
2013-03-17 09:35:00,54.6,52.9,29.90,ENE,72,2.0,2.0,94,0.00,,---,0.00,VWS V14.01,2013-03-17 13:35:00,
2013-03-17 09:40:00,54.7,53.0,29.91,ENE,59,2.0,3.0,94,0.00,,---,0.00,VWS V14.01,2013-03-17 13:40:00,
2013-03-17 09:45:00,54.7,53.0,29.91,East,93,3.0,6.0,94,0.00,,---,0.00,VWS V14.01,2013-03-17 13:45:00,
2013-03-17 09:50:00,54.7,53.0,29.91,ENE,63,1.0,6.0,94,0.00,,---,0.00,VWS V14.01,2013-03-17 13:50:00,
2013-03-17 09:55:00,54.7,53.0,29.92,NNE,29,0.0,6.0,94,0.00,,---,0.00,VWS V14.01,2013-03-17 13:55:00,
2013-03-17 10:00:00,54.6,52.9,29.92,East,98,1.0,7.0,94,0.00,,---,0.00,VWS V14.01,2013-03-17 14:00:00,
2013-03-17 10:05:00,54.6,52.9,29.92,ENE,61,0.0,2.0,94,0.00,,---,0.00,VWS V14.01,2013-03-17 14:05:00,
2013-03-17 10:10:00,54.5,52.5,29.92,East,92,1.0,4.0,93,0.00,,---,0.00,VWS V14.01,2013-03-17 14:10:00,
2013-03-17 10:15:00,54.4,52.4,29.93,NE,52,1.0,4.0,93,0.00,,---,0.00,VWS V14.01,2013-03-17 14:15:00,
2013-03-17 10:20:00,54.1,51.8,29.93,NE,40,1.0,5.0,92,0.00,,---,0.00,VWS V14.01,2013-03-17 14:20:00,
2013-03-17 10:25:00,53.7,51.4,29.93,NE,47,2.0,5.0,92,0.00,,---,0.00,VWS V14.01,2013-03-17 14:25:00,
2013-03-17 10:30:00,53.4,51.1,29.93,ENE,72,3.0,5.0,92,0.00,,---,0.00,VWS V14.01,2013-03-17 14:30:00,
2013-03-17 10:35:00,53.2,50.9,29.93,NNE,19,1.0,4.0,92,0.00,,---,0.00,VWS V14.01,2013-03-17 14:35:00,
2013-03-17 10:40:00,53.0,50.7,29.93,East,81,2.0,4.0,92,0.00,,---,0.00,VWS V14.01,2013-03-17 14:40:00,
2013-03-17 10:45:00,52.8,50.5,29.93,ENE,76,2.0,6.0,92,0.00,,---,0.00,VWS V14.01,2013-03-17 14:45:00,
2013-03-17 10:50:00,52.6,50.6,29.94,East,79,0.0,6.0,93,0.00,,---,0.00,VWS V14.01,2013-03-17 14:50:00,
2013-03-17 10:55:00,52.5,50.5,29.94,NNE,30,2.0,6.0,93,0.00,,---,0.00,VWS V14.01,2013-03-17 14:55:00,
2013-03-17 11:00:00,52.4,50.4,29.94,East,79,1.0,6.0,93,0.00,,---,0.00,VWS V14.01,2013-03-17 15:00:00,
2013-03-17 11:05:00,52.2,50.0,29.94,NE,38,0.0,5.0,92,0.00,,---,0.00,VWS V14.01,2013-03-17 15:05:00,
2013-03-17 11:10:00,52.1,49.8,29.94,ESE,106,2.0,6.0,92,0.00,,---,0.00,VWS V14.01,2013-03-17 15:10:00,
2013-03-17 11:15:00,52.2,50.0,29.94,East,92,0.0,6.0,92,0.00,,---,0.00,VWS V14.01,2013-03-17 15:15:00,
2013-03-17 11:20:00,52.3,50.0,29.94,East,94,2.0,6.0,92,0.00,,---,0.00,VWS V14.01,2013-03-17 15:20:00,
2013-03-17 11:25:00,52.4,49.8,29.94,ESE,108,3.0,6.0,91,0.00,,---,0.00,VWS V14.01,2013-03-17 15:25:00,
2013-03-17 11:30:00,52.6,49.5,29.94,ENE,71,0.0,6.0,89,0.00,,---,0.00,VWS V14.01,2013-03-17 15:30:00,
2013-03-17 11:35:00,52.9,49.8,29.95,ENE,74,1.0,4.0,89,0.00,,---,0.00,VWS V14.01,2013-03-17 15:35:00,
2013-03-17 11:40:00,53.2,49.4,29.95,ESE,108,4.0,6.0,87,0.00,,---,0.00,VWS V14.01,2013-03-17 15:40:00,
2013-03-17 11:45:00,53.4,49.3,29.95,SE,132,2.0,6.0,86,0.00,,---,0.00,VWS V14.01,2013-03-17 15:45:00,
2013-03-17 11:50:00,53.7,49.6,29.95,SE,136,2.0,6.0,86,0.00,,---,0.00,VWS V14.01,2013-03-17 15:50:00,
2013-03-17 11:55:00,54.2,49.8,29.95,NE,48,2.0,6.0,85,0.00,,---,0.00,VWS V14.01,2013-03-17 15:55:00,
2013-03-17 12:00:00,54.6,49.5,29.94,WNW,295,0.0,6.0,83,0.00,,---,0.00,VWS V14.01,2013-03-17 16:00:00,
2013-03-17 12:05:00,55.1,49.4,29.94,NE,39,3.0,6.0,81,0.00,,---,0.00,VWS V14.01,2013-03-17 16:05:00,
2013-03-17 12:10:00,55.5,49.8,29.94,East,90,2.0,6.0,81,0.00,,---,0.00,VWS V14.01,2013-03-17 16:10:00,
2013-03-17 12:15:00,56.0,49.9,29.94,ENE,57,4.0,6.0,80,0.00,,---,0.00,VWS V14.01,2013-03-17 16:15:00,
2013-03-17 12:20:00,56.5,49.7,29.94,ENE,66,1.0,6.0,78,0.00,,---,0.00,VWS V14.01,2013-03-17 16:20:00,
2013-03-17 12:25:00,57.0,49.9,29.94,NNE,14,2.0,6.0,77,0.00,,---,0.00,VWS V14.01,2013-03-17 16:25:00,
2013-03-17 12:30:00,57.4,49.5,29.95,ESE,109,1.0,6.0,75,0.00,,---,0.00,VWS V14.01,2013-03-17 16:30:00,
2013-03-17 12:35:00,57.8,49.6,29.95,WNW,302,2.0,6.0,74,0.00,,---,0.00,VWS V14.01,2013-03-17 16:35:00,
2013-03-17 12:40:00,58.1,49.5,29.94,East,93,4.0,11.0,73,0.00,,---,0.00,VWS V14.01,2013-03-17 16:40:00,
2013-03-17 12:45:00,58.3,49.3,29.94,NE,44,3.0,11.0,72,0.00,,---,0.00,VWS V14.01,2013-03-17 16:45:00,
2013-03-17 12:50:00,58.6,49.2,29.94,NE,42,3.0,11.0,71,0.00,,---,0.00,VWS V14.01,2013-03-17 16:50:00,
2013-03-17 12:55:00,58.9,49.2,29.95,NNE,24,7.0,12.0,70,0.00,,---,0.00,VWS V14.01,2013-03-17 16:55:00,
2013-03-17 13:00:00,59.0,49.2,29.94,North,9,4.0,12.0,70,0.00,,---,0.00,VWS V14.01,2013-03-17 17:00:00,
2013-03-17 13:05:00,59.0,48.9,29.94,ENE,78,5.0,11.0,69,0.00,,---,0.00,VWS V14.01,2013-03-17 17:05:00,
2013-03-17 13:10:00,59.1,49.0,29.94,ESE,103,2.0,11.0,69,0.00,,---,0.00,VWS V14.01,2013-03-17 17:10:00,
2013-03-17 13:15:00,59.3,49.5,29.94,ENE,77,4.0,11.0,70,0.00,,---,0.00,VWS V14.01,2013-03-17 17:15:00,
2013-03-17 13:20:00,59.6,49.0,29.94,NE,51,3.0,11.0,68,0.00,,---,0.00,VWS V14.01,2013-03-17 17:20:00,
2013-03-17 13:25:00,59.9,49.3,29.94,SE,136,5.0,12.0,68,0.00,,---,0.00,VWS V14.01,2013-03-17 17:25:00,
2013-03-17 13:30:00,60.4,49.4,29.94,NNW,347,3.0,12.0,67,0.00,,---,0.00,VWS V14.01,2013-03-17 17:30:00,
2013-03-17 13:35:00,60.4,49.0,29.94,NE,40,3.0,8.0,66,0.00,,---,0.00,VWS V14.01,2013-03-17 17:35:00,
2013-03-17 13:40:00,60.0,48.6,29.94,ENE,71,2.0,9.0,66,0.00,,---,0.00,VWS V14.01,2013-03-17 17:40:00,
2013-03-17 13:45:00,59.8,48.8,29.94,ENE,78,4.0,9.0,67,0.00,,---,0.00,VWS V14.01,2013-03-17 17:45:00,
2013-03-17 13:50:00,59.5,48.5,29.94,ENE,61,0.0,11.0,67,0.00,,---,0.00,VWS V14.01,2013-03-17 17:50:00,
2013-03-17 13:55:00,59.4,48.0,29.95,North,9,5.0,11.0,66,0.00,,---,0.00,VWS V14.01,2013-03-17 17:55:00,
2013-03-17 14:00:00,59.0,47.7,29.95,ENE,64,1.0,11.0,66,0.00,,---,0.00,VWS V14.01,2013-03-17 18:00:00,
2013-03-17 14:05:00,58.6,48.1,29.94,NE,36,5.0,7.0,68,0.00,,---,0.00,VWS V14.01,2013-03-17 18:05:00,
2013-03-17 14:10:00,58.7,48.2,29.94,East,96,4.0,11.0,68,0.00,,---,0.00,VWS V14.01,2013-03-17 18:10:00,
2013-03-17 14:15:00,58.4,47.9,29.94,East,94,4.0,11.0,68,0.00,,---,0.00,VWS V14.01,2013-03-17 18:15:00,
2013-03-17 14:20:00,58.2,47.7,29.94,NNE,22,2.0,11.0,68,0.00,,---,0.00,VWS V14.01,2013-03-17 18:20:00,
2013-03-17 14:25:00,58.3,47.8,29.94,East,88,2.0,11.0,68,0.00,,---,0.00,VWS V14.01,2013-03-17 18:25:00,
2013-03-17 14:30:00,58.1,47.6,29.94,East,99,5.0,11.0,68,0.00,,---,0.00,VWS V14.01,2013-03-17 18:30:00,
2013-03-17 14:35:00,57.8,46.9,29.94,NE,37,3.0,6.0,67,0.00,,---,0.00,VWS V14.01,2013-03-17 18:35:00,
2013-03-17 14:40:00,57.6,47.1,29.94,East,97,3.0,11.0,68,0.00,,---,0.00,VWS V14.01,2013-03-17 18:40:00,
2013-03-17 14:45:00,57.3,46.5,29.94,NNE,33,4.0,11.0,67,0.00,,---,0.00,VWS V14.01,2013-03-17 18:45:00,
2013-03-17 14:50:00,56.9,46.5,29.93,NNE,32,4.0,11.0,68,0.00,,---,0.00,VWS V14.01,2013-03-17 18:50:00,
2013-03-17 14:55:00,56.5,46.1,29.93,ENE,71,3.0,11.0,68,0.00,,---,0.00,VWS V14.01,2013-03-17 18:55:00,
2013-03-17 15:00:00,56.3,45.9,29.93,NE,53,3.0,11.0,68,0.00,,---,0.00,VWS V14.01,2013-03-17 19:00:00,
2013-03-17 15:05:00,56.0,46.4,29.93,NE,38,5.0,10.0,70,0.00,,---,0.00,VWS V14.01,2013-03-17 19:05:00,
2013-03-17 15:10:00,55.7,45.3,29.93,NE,35,4.0,10.0,68,0.00,,---,0.00,VWS V14.01,2013-03-17 19:10:00,
2013-03-17 15:15:00,55.4,45.4,29.93,NNE,13,3.0,10.0,69,0.00,,---,0.00,VWS V14.01,2013-03-17 19:15:00,
2013-03-17 15:20:00,55.1,45.1,29.93,East,82,3.0,13.0,69,0.00,,---,0.00,VWS V14.01,2013-03-17 19:20:00,
2013-03-17 15:25:00,54.8,45.2,29.93,East,97,6.0,13.0,70,0.00,,---,0.00,VWS V14.01,2013-03-17 19:25:00,
2013-03-17 15:30:00,54.6,44.7,29.93,SE,127,5.0,13.0,69,0.00,,---,0.00,VWS V14.01,2013-03-17 19:30:00,
2013-03-17 15:35:00,54.3,44.7,29.93,NE,38,3.0,10.0,70,0.00,,---,0.00,VWS V14.01,2013-03-17 19:35:00,
2013-03-17 15:40:00,54.2,44.6,29.93,ENE,66,3.0,10.0,70,0.00,,---,0.00,VWS V14.01,2013-03-17 19:40:00,
2013-03-17 15:45:00,54.1,44.5,29.93,ENE,59,4.0,10.0,70,0.00,,---,0.00,VWS V14.01,2013-03-17 19:45:00,
2013-03-17 15:50:00,54.0,44.5,29.94,NE,34,11.0,11.0,70,0.00,,---,0.00,VWS V14.01,2013-03-17 19:50:00,
2013-03-17 15:55:00,53.7,44.2,29.94,ENE,63,3.0,11.0,70,0.00,,---,0.00,VWS V14.01,2013-03-17 19:55:00,
2013-03-17 16:00:00,53.5,44.3,29.94,NNE,26,6.0,11.0,71,0.00,,---,0.00,VWS V14.01,2013-03-17 20:00:00,
2013-03-17 16:05:00,53.3,44.2,29.94,ESE,118,3.0,7.0,71,0.00,,---,0.00,VWS V14.01,2013-03-17 20:05:00,
2013-03-17 16:10:00,53.3,44.2,29.94,NE,39,3.0,8.0,71,0.00,,---,0.00,VWS V14.01,2013-03-17 20:10:00,
2013-03-17 16:15:00,53.1,44.0,29.94,NE,46,3.0,11.0,71,0.00,,---,0.00,VWS V14.01,2013-03-17 20:15:00,
2013-03-17 16:20:00,52.8,43.7,29.94,ENE,74,4.0,11.0,71,0.00,,---,0.00,VWS V14.01,2013-03-17 20:20:00,
2013-03-17 16:25:00,52.5,43.8,29.94,East,88,3.0,11.0,72,0.00,,---,0.00,VWS V14.01,2013-03-17 20:25:00,
2013-03-17 16:30:00,52.4,44.0,29.94,ESE,109,5.0,11.0,73,0.00,,---,0.00,VWS V14.01,2013-03-17 20:30:00,
2013-03-17 16:35:00,52.2,43.8,29.94,East,82,4.0,9.0,73,0.00,,---,0.00,VWS V14.01,2013-03-17 20:35:00,
2013-03-17 16:40:00,52.1,43.7,29.94,NE,36,5.0,9.0,73,0.00,,---,0.00,VWS V14.01,2013-03-17 20:40:00,
2013-03-17 16:45:00,51.9,43.2,29.94,NE,42,5.0,9.0,72,0.00,,---,0.00,VWS V14.01,2013-03-17 20:45:00,
2013-03-17 16:50:00,51.6,43.2,29.94,East,88,1.0,9.0,73,0.00,,---,0.00,VWS V14.01,2013-03-17 20:50:00,
2013-03-17 16:54:00,51.4,43.4,29.94,NNE,25,5.0,9.0,74,0.00,,---,0.00,VWS V14.01,2013-03-17 20:54:00,
2013-03-17 16:59:00,51.2,43.2,29.95,ENE,57,3.0,9.0,74,0.00,,---,0.00,VWS V14.01,2013-03-17 20:59:00,
2013-03-17 17:00:00,53.5,44.3,29.94,ENE,73,6.0,11.0,71,0.00,,---,0.00,VWS V14.01,2013-03-17 21:00:00,
2013-03-17 17:04:00,51.0,43.0,29.95,ENE,63,1.0,6.0,74,0.00,,---,0.00,VWS V14.01,2013-03-17 21:04:00,
2013-03-17 17:09:00,50.9,42.6,29.95,ESE,113,3.0,6.0,73,0.00,,---,0.00,VWS V14.01,2013-03-17 21:09:00,
2013-03-17 17:14:00,50.8,42.5,29.95,ESE,114,3.0,10.0,73,0.00,,---,0.00,VWS V14.01,2013-03-17 21:14:00,
2013-03-17 17:19:00,50.6,42.6,29.95,NE,39,3.0,10.0,74,0.00,,---,0.00,VWS V14.01,2013-03-17 21:19:00,
2013-03-17 17:24:00,50.4,42.4,29.95,East,93,0.0,10.0,74,0.00,,---,0.00,VWS V14.01,2013-03-17 21:24:00,
2013-03-17 17:29:00,50.4,42.4,29.96,NNE,32,2.0,10.0,74,0.00,,---,0.00,VWS V14.01,2013-03-17 21:29:00,
2013-03-17 17:30:00,52.4,44.0,29.94,ENE,68,2.0,11.0,73,0.00,,---,0.00,VWS V14.01,2013-03-17 21:30:00,
2013-03-17 17:34:00,50.2,42.2,29.95,North,355,5.0,10.0,74,0.00,,---,0.00,VWS V14.01,2013-03-17 21:34:00,
2013-03-17 17:39:00,50.0,42.0,29.95,NNW,347,5.0,12.0,74,0.00,,---,0.00,VWS V14.01,2013-03-17 21:39:00,
2013-03-17 17:44:00,49.9,42.0,29.95,East,100,2.0,12.0,74,0.00,,---,0.00,VWS V14.01,2013-03-17 21:44:00,
2013-03-17 17:49:00,49.8,42.2,29.95,East,93,4.0,12.0,75,0.00,,---,0.00,VWS V14.01,2013-03-17 21:49:00,
2013-03-17 17:54:00,49.8,42.2,29.95,ENE,68,4.0,12.0,75,0.00,,---,0.00,VWS V14.01,2013-03-17 21:54:00,
2013-03-17 17:59:00,49.7,42.1,29.96,ESE,111,4.0,12.0,75,0.00,,---,0.00,VWS V14.01,2013-03-17 21:59:00,
2013-03-17 18:00:00,51.2,42.8,29.94,ENE,77,5.0,9.0,73,0.00,,---,0.00,VWS V14.01,2013-03-17 22:00:00,
2013-03-17 18:04:00,49.5,41.6,29.96,ENE,71,5.0,11.0,74,0.00,,---,0.00,VWS V14.01,2013-03-17 22:04:00,
2013-03-17 18:09:00,49.3,41.4,29.96,ESE,121,3.0,13.0,74,0.00,,---,0.00,VWS V14.01,2013-03-17 22:09:00,
2013-03-17 18:14:00,49.2,41.6,29.97,NE,37,2.0,13.0,75,0.00,,---,0.00,VWS V14.01,2013-03-17 22:14:00,
2013-03-17 18:19:00,49.1,41.5,29.97,ESE,106,5.0,13.0,75,0.00,,---,0.00,VWS V14.01,2013-03-17 22:19:00,
2013-03-17 18:24:00,49.0,41.4,29.97,NNE,24,3.0,13.0,75,0.00,,---,0.00,VWS V14.01,2013-03-17 22:24:00,
2013-03-17 18:29:00,48.9,41.3,29.98,SE,140,1.0,13.0,75,0.00,,---,0.00,VWS V14.01,2013-03-17 22:29:00,
2013-03-17 18:30:00,50.3,42.3,29.95,ESE,103,4.0,10.0,74,0.00,,---,0.00,VWS V14.01,2013-03-17 22:30:00,
2013-03-17 18:34:00,48.8,41.2,29.98,ENE,61,1.0,5.0,75,0.00,,---,0.00,VWS V14.01,2013-03-17 22:34:00,
2013-03-17 18:39:00,48.7,41.1,29.98,ENE,59,4.0,12.0,75,0.00,,---,0.00,VWS V14.01,2013-03-17 22:39:00,
2013-03-17 18:44:00,48.6,41.4,29.99,ESE,109,4.0,12.0,76,0.00,,---,0.00,VWS V14.01,2013-03-17 22:44:00,
2013-03-17 18:49:00,48.6,41.4,29.99,ESE,106,0.0,12.0,76,0.00,,---,0.00,VWS V14.01,2013-03-17 22:49:00,
2013-03-17 18:54:00,48.5,41.3,29.99,East,96,2.0,12.0,76,0.00,,---,0.00,VWS V14.01,2013-03-17 22:54:00,
2013-03-17 18:59:00,48.5,41.3,29.99,ESE,121,2.0,12.0,76,0.00,,---,0.00,VWS V14.01,2013-03-17 22:59:00,
2013-03-17 19:00:00,49.6,42.0,29.96,East,88,2.0,12.0,75,0.00,,---,0.00,VWS V14.01,2013-03-17 23:00:00,
2013-03-17 19:04:00,48.4,41.2,29.99,SE,129,1.0,3.0,76,0.00,,---,0.00,VWS V14.01,2013-03-17 23:04:00,
2013-03-17 19:09:00,48.3,41.4,29.99,ENE,67,1.0,4.0,77,0.00,,---,0.00,VWS V14.01,2013-03-17 23:09:00,
2013-03-17 19:14:00,48.1,41.2,29.99,ENE,71,1.0,7.0,77,0.00,,---,0.00,VWS V14.01,2013-03-17 23:14:00,
2013-03-17 19:19:00,48.0,41.2,30.00,ENE,78,1.0,7.0,77,0.00,,---,0.00,VWS V14.01,2013-03-17 23:19:00,
2013-03-17 19:24:00,47.9,41.0,30.00,East,96,2.0,7.0,77,0.00,,---,0.00,VWS V14.01,2013-03-17 23:24:00,
2013-03-17 19:29:00,47.8,41.0,30.00,ENE,74,0.0,7.0,77,0.00,,---,0.00,VWS V14.01,2013-03-17 23:29:00,
2013-03-17 19:30:00,48.9,41.3,29.98,ENE,71,0.0,13.0,75,0.00,,---,0.00,VWS V14.01,2013-03-17 23:30:00,
2013-03-17 19:34:00,47.7,41.2,30.00,East,95,0.0,6.0,78,0.00,,---,0.00,VWS V14.01,2013-03-17 23:34:00,
2013-03-17 19:39:00,47.6,41.1,30.00,East,84,2.0,6.0,78,0.00,,---,0.00,VWS V14.01,2013-03-17 23:39:00,
2013-03-17 19:44:00,47.5,40.7,30.00,NE,55,1.0,7.0,77,0.00,,---,0.00,VWS V14.01,2013-03-17 23:44:00,
2013-03-17 19:49:00,47.4,40.9,30.00,ESE,111,3.0,7.0,78,0.00,,---,0.00,VWS V14.01,2013-03-17 23:49:00,
2013-03-17 19:54:00,47.2,40.7,30.00,SSE,157,2.0,7.0,78,0.00,,---,0.00,VWS V14.01,2013-03-17 23:54:00,
2013-03-17 19:59:00,47.1,40.6,30.00,ENE,74,2.0,7.0,78,0.00,,---,0.00,VWS V14.01,2013-03-17 23:59:00,
2013-03-17 20:00:00,48.4,41.2,29.99,East,83,1.0,12.0,76,0.00,,---,0.00,VWS V14.01,2013-03-18 00:00:00,
2013-03-17 20:04:00,46.9,40.4,30.00,NE,49,0.0,10.0,78,0.00,,---,0.00,VWS V14.01,2013-03-18 00:04:00,
2013-03-17 20:09:00,46.8,40.3,30.00,NNE,16,4.0,10.0,78,0.00,,---,0.00,VWS V14.01,2013-03-18 00:09:00,
2013-03-17 20:14:00,46.6,40.1,30.00,NE,55,0.0,10.0,78,0.00,,---,0.00,VWS V14.01,2013-03-18 00:14:00,
2013-03-17 20:19:00,46.4,39.9,30.00,SSE,155,3.0,12.0,78,0.00,,---,0.00,VWS V14.01,2013-03-18 00:19:00,
2013-03-17 20:24:00,46.3,39.8,30.01,ENE,70,1.0,12.0,78,0.00,,---,0.00,VWS V14.01,2013-03-18 00:24:00,
2013-03-17 20:29:00,46.2,40.1,30.01,East,80,3.0,12.0,79,0.00,,---,0.00,VWS V14.01,2013-03-18 00:29:00,
2013-03-17 20:30:00,47.8,41.0,30.00,East,88,3.0,7.0,77,0.00,,---,0.00,VWS V14.01,2013-03-18 00:30:00,
2013-03-17 20:34:00,46.1,40.0,30.02,East,82,3.0,7.0,79,0.00,,---,0.00,VWS V14.01,2013-03-18 00:34:00,
2013-03-17 20:39:00,46.1,40.0,30.02,ENE,76,3.0,7.0,79,0.00,,---,0.00,VWS V14.01,2013-03-18 00:39:00,
2013-03-17 20:44:00,46.1,40.0,30.02,East,94,4.0,7.0,79,0.00,,---,0.00,VWS V14.01,2013-03-18 00:44:00,
2013-03-17 20:49:00,46.1,40.0,30.02,East,96,5.0,7.0,79,0.00,,---,0.00,VWS V14.01,2013-03-18 00:49:00,
2013-03-17 20:54:00,46.0,39.9,30.02,ESE,117,2.0,7.0,79,0.00,,---,0.00,VWS V14.01,2013-03-18 00:54:00,
2013-03-17 20:59:00,46.0,39.9,30.02,East,94,1.0,7.0,79,0.00,,---,0.00,VWS V14.01,2013-03-18 00:59:00,
2013-03-17 21:00:00,47.1,40.6,30.01,NE,47,2.0,7.0,78,0.00,,---,0.00,VWS V14.01,2013-03-18 01:00:00,
2013-03-17 21:04:00,46.0,39.9,30.03,ENE,61,1.0,6.0,79,0.00,,---,0.00,VWS V14.01,2013-03-18 01:04:00,
2013-03-17 21:09:00,46.0,39.9,30.03,ENE,76,3.0,9.0,79,0.00,,---,0.00,VWS V14.01,2013-03-18 01:09:00,
2013-03-17 21:14:00,46.0,39.9,30.04,NE,55,3.0,9.0,79,0.00,,---,0.00,VWS V14.01,2013-03-18 01:14:00,
2013-03-17 21:19:00,45.9,39.8,30.04,ESE,115,0.0,9.0,79,0.00,,---,0.00,VWS V14.01,2013-03-18 01:19:00,
2013-03-17 21:24:00,45.9,39.8,30.04,NE,48,2.0,9.0,79,0.00,,---,0.00,VWS V14.01,2013-03-18 01:24:00,
2013-03-17 21:29:00,45.8,39.7,30.05,ENE,76,2.0,9.0,79,0.00,,---,0.00,VWS V14.01,2013-03-18 01:29:00,
2013-03-17 21:30:00,46.2,40.1,30.01,East,100,1.0,12.0,79,0.00,,---,0.00,VWS V14.01,2013-03-18 01:30:00,
2013-03-17 21:34:00,45.8,39.7,30.06,ENE,63,1.0,7.0,79,0.00,,---,0.00,VWS V14.01,2013-03-18 01:34:00,
2013-03-17 21:39:00,45.7,39.9,30.06,ENE,73,0.0,7.0,80,0.00,,---,0.00,VWS V14.01,2013-03-18 01:39:00,
2013-03-17 21:44:00,45.7,39.9,30.06,East,88,0.0,7.0,80,0.00,,---,0.00,VWS V14.01,2013-03-18 01:44:00,
2013-03-17 21:49:00,45.7,39.9,30.06,East,88,0.0,7.0,80,0.00,,---,0.00,VWS V14.01,2013-03-18 01:49:00,
2013-03-17 21:54:00,45.6,39.8,30.07,ESE,103,0.0,7.0,80,0.00,,---,0.00,VWS V14.01,2013-03-18 01:54:00,
2013-03-17 21:59:00,45.6,40.1,30.08,NE,51,0.0,7.0,81,0.00,,---,0.00,VWS V14.01,2013-03-18 01:59:00,
2013-03-17 22:00:00,46.0,39.9,30.02,ESE,109,4.0,7.0,79,0.00,,---,0.00,VWS V14.01,2013-03-18 02:00:00,
2013-03-17 22:04:00,45.5,40.0,30.07,East,86,0.0,4.0,81,0.00,,---,0.00,VWS V14.01,2013-03-18 02:04:00,
2013-03-17 22:09:00,45.4,39.9,30.07,ENE,70,0.0,4.0,81,0.00,,---,0.00,VWS V14.01,2013-03-18 02:09:00,
2013-03-17 22:14:00,45.3,39.8,30.07,NNE,33,3.0,5.0,81,0.00,,---,0.00,VWS V14.01,2013-03-18 02:14:00,
2013-03-17 22:19:00,45.2,39.7,30.08,SE,130,5.0,5.0,81,0.00,,---,0.00,VWS V14.01,2013-03-18 02:19:00,
2013-03-17 22:24:00,45.1,39.6,30.08,ESE,107,0.0,8.0,81,0.00,,---,0.00,VWS V14.01,2013-03-18 02:24:00,
2013-03-17 22:29:00,44.9,39.8,30.08,East,101,0.0,8.0,82,0.00,,---,0.00,VWS V14.01,2013-03-18 02:29:00,
2013-03-17 22:30:00,45.8,39.7,30.05,ESE,115,4.0,9.0,79,0.00,,---,0.00,VWS V14.01,2013-03-18 02:30:00,
2013-03-17 22:34:00,44.8,39.7,30.08,NNE,24,1.0,6.0,82,0.00,,---,0.00,VWS V14.01,2013-03-18 02:34:00,
2013-03-17 22:39:00,44.7,39.5,30.08,SE,135,1.0,6.0,82,0.00,,---,0.00,VWS V14.01,2013-03-18 02:39:00,
2013-03-17 22:44:00,44.7,39.9,30.08,NNE,17,0.0,6.0,83,0.00,,---,0.00,VWS V14.01,2013-03-18 02:44:00,
2013-03-17 22:49:00,44.6,39.8,30.08,ENE,63,2.0,6.0,83,0.00,,---,0.00,VWS V14.01,2013-03-18 02:49:00,
2013-03-17 22:54:00,44.4,39.6,30.08,East,87,0.0,6.0,83,0.00,,---,0.00,VWS V14.01,2013-03-18 02:54:00,
2013-03-17 22:59:00,44.3,39.5,30.08,ENE,74,0.0,6.0,83,0.00,,---,0.00,VWS V14.01,2013-03-18 02:59:00,
2013-03-17 23:00:00,45.5,39.7,30.08,NE,51,0.0,7.0,80,0.00,,---,0.00,VWS V14.01,2013-03-18 03:00:00,
2013-03-17 23:04:00,44.1,39.6,30.08,East,83,0.0,6.0,84,0.00,,---,0.00,VWS V14.01,2013-03-18 03:04:00,
2013-03-17 23:09:00,44.0,39.5,30.08,NE,40,1.0,6.0,84,0.00,,---,0.00,VWS V14.01,2013-03-18 03:09:00,
2013-03-17 23:14:00,43.9,39.4,30.08,East,87,1.0,6.0,84,0.00,,---,0.00,VWS V14.01,2013-03-18 03:14:00,
2013-03-17 23:19:00,43.8,39.6,30.08,NNE,26,4.0,6.0,85,0.00,,---,0.00,VWS V14.01,2013-03-18 03:19:00,
2013-03-17 23:24:00,43.7,39.5,30.08,SE,124,3.0,6.0,85,0.00,,---,0.00,VWS V14.01,2013-03-18 03:24:00,
2013-03-17 23:29:00,43.5,39.3,30.08,ESE,112,4.0,6.0,85,0.00,,---,0.00,VWS V14.01,2013-03-18 03:29:00,
2013-03-17 23:30:00,44.9,39.8,30.08,East,101,1.0,8.0,82,0.00,,---,0.00,VWS V14.01,2013-03-18 03:30:00,
2013-03-17 23:34:00,43.3,39.4,30.08,NE,50,0.0,4.0,86,0.00,,---,0.00,VWS V14.01,2013-03-18 03:34:00,
2013-03-17 23:39:00,43.2,39.6,30.08,ENE,62,2.0,4.0,87,0.00,,---,0.00,VWS V14.01,2013-03-18 03:39:00,
2013-03-17 23:44:00,42.9,39.6,30.08,East,101,0.0,6.0,88,0.00,,---,0.00,VWS V14.01,2013-03-18 03:44:00,
2013-03-17 23:49:00,42.8,39.8,30.08,NNE,28,1.0,6.0,89,0.00,,---,0.00,VWS V14.01,2013-03-18 03:49:00,
2013-03-17 23:54:00,42.5,39.5,30.08,NE,40,1.0,9.0,89,0.00,,---,0.00,VWS V14.01,2013-03-18 03:54:00,
2013-03-17 23:59:00,42.4,39.4,30.08,SE,130,1.0,9.0,89,0.00,,---,0.00,VWS V14.01,2013-03-18 03:59:00,